SM2GSR-2 Weather Reports


Display with metric or nautical units.
time (UTC)temp
F
wind
direction
speed
MPH
gust
MPH
rain 1hr
in
rain 24hr
in
rain mn
in
humidity
%
barometer
mb
20260906171504 51 47 0.0 0.0 0.00 0.01 0.01 87 1006.5
20260906171003 51 47 0.0 0.0 0.00 0.01 0.01 86 1006.4
20260906170503 51 47 0.0 0.0 0.00 0.01 0.01 86 1006.4
20260906170004 51 47 0.0 0.0 0.00 0.01 0.01 86 1006.3
20260906165503 51 47 0.0 0.0 0.00 0.01 0.01 85 1006.4
20260906164503 51 47 0.0 0.0 0.00 0.01 0.01 84 1006.4
20260906164004 51 47 0.0 0.0 0.00 0.01 0.01 84 1006.4
20260906163503 52 47 0.0 0.0 0.00 0.01 0.01 84 1006.4
20260906163004 52 47 0.0 0.0 0.00 0.01 0.01 83 1006.5
20260906161504 52 47 0.0 0.0 0.00 0.01 0.01 79 1006.4
20260906161003 53 47 0.0 0.0 0.00 0.01 0.01 76 1006.4
20260906155503 55 47 0.0 0.0 0.00 0.01 0.01 74 1006.3
20260906155004 54 47 0.0 2.0 0.00 0.01 0.01 73 1006.4
20260906154505 54 47 0.0 0.0 0.00 0.01 0.01 75 1006.3
20260906154004 54 47 0.0 0.0 0.00 0.01 0.01 77 1006.3
20260906152503 54 47 0.0 0.0 0.00 0.01 0.01 79 1006.2
20260906151504 54 47 0.0 0.0 0.00 0.01 0.01 78 1006.2
20260906151004 54 47 0.0 0.0 0.00 0.01 0.01 76 1006.2
20260906150504 54 47 0.0 0.0 0.00 0.01 0.01 75 1006.1
20260906150003 55 47 0.0 0.0 0.00 0.01 0.01 72 1006.0
20260906145504 56 47 0.0 0.0 0.00 0.01 0.01 71 1006.0
20260906145003 56 47 0.0 0.0 0.00 0.01 0.01 70 1006.1
20260906144503 57 47 0.0 0.0 0.00 0.01 0.01 66 1006.0
20260906143504 57 47 0.0 0.0 0.00 0.01 0.01 65 1006.0
20260906141503 57 47 0.0 0.0 0.00 0.01 0.01 61 1006.0
20260906141004 58 47 0.0 0.0 0.00 0.01 0.01 60 1006.1
20260906140504 58 47 0.0 0.0 0.00 0.01 0.01 62 1006.1
20260906140004 57 47 0.0 1.0 0.00 0.01 0.01 64 1006.2
20260906135504 57 47 0.0 0.0 0.00 0.01 0.01 65 1006.2
20260906135004 56 47 0.0 0.0 0.00 0.01 0.01 64 1006.2
20260906134503 57 47 0.0 0.0 0.00 0.01 0.01 64 1006.1
20260906134004 56 47 0.0 0.0 0.00 0.01 0.01 62 1006.1
20260906133504 56 47 0.0 0.0 0.00 0.01 0.01 64 1006.1
20260906133003 55 44 0.0 0.0 0.00 0.01 0.01 65 1006.1
20260906132504 55 44 0.0 0.0 0.00 0.01 0.01 67 1006.1
20260906132003 55 44 0.0 0.0 0.00 0.01 0.01 65 1006.1
20260906131504 55 34 0.0 0.0 0.00 0.01 0.01 67 1006.1
20260906131003 55 10 0.0 1.0 0.00 0.01 0.01 66 1006.1
20260906130004 55 67 0.0 0.0 0.00 0.01 0.01 67 1006.0
20260906125004 55 61 0.0 3.0 0.00 0.01 0.01 68 1006.0
20260906124503 55 55 0.0 0.0 0.00 0.01 0.01 66 1006.0
20260906124004 55 53 0.0 3.0 0.00 0.01 0.01 65 1006.0
20260906123504 55 82 0.0 0.0 0.00 0.01 0.01 67 1006.0
20260906123003 54 78 0.0 3.0 0.00 0.01 0.01 65 1006.0
20260906122504 54 78 0.0 0.0 0.00 0.01 0.01 66 1006.0
20260906121503 54 81 0.0 0.0 0.00 0.01 0.01 65 1006.0
20260906121004 54 81 0.0 0.0 0.00 0.01 0.01 66 1006.0
20260906120503 53 81 0.0 0.0 0.00 0.01 0.01 65 1006.0
20260906120004 55 85 0.0 0.0 0.00 0.01 0.01 65 1006.0
20260906115504 55 194 0.0 0.0 0.00 0.01 0.01 69 1006.0
20260906115004 54 198 0.0 2.0 0.00 0.01 0.01 67 1006.0
20260906114503 53 233 0.0 3.0 0.00 0.01 0.01 67 1006.0
20260906114004 53 229 0.0 3.0 0.00 0.01 0.01 65 1006.0
20260906113504 53 225 1.0 3.0 0.00 0.01 0.01 65 1006.0
20260906113004 53 226 1.0 6.0 0.00 0.01 0.01 65 1006.0
20260906112504 53 243 0.0 5.0 0.00 0.01 0.01 65 1005.9
20260906112004 53 224 0.0 6.0 0.00 0.01 0.01 65 1006.0
20260906111503 53 179 0.0 5.0 0.00 0.01 0.01 66 1006.0
20260906111004 52 128 3.0 6.0 0.00 0.01 0.01 67 1005.9
20260906110504 52 209 3.0 7.0 0.00 0.01 0.01 66 1006.0
20260906110004 52 184 1.0 5.0 0.00 0.01 0.01 67 1006.0
20260906105504 51 220 1.0 3.0 0.00 0.01 0.01 67 1006.0
20260906105003 51 220 2.0 3.0 0.00 0.01 0.01 69 1005.9
20260906104504 50 261 0.0 0.0 0.00 0.01 0.01 67 1006.0
20260906104003 50 261 0.0 0.0 0.00 0.01 0.01 68 1006.0
20260906103504 49 263 0.0 3.0 0.00 0.01 0.01 69 1006.0
20260906103004 49 357 0.0 1.0 0.00 0.01 0.01 71 1006.0
20260906102504 49 0 0.0 0.0 0.00 0.01 0.01 69 1005.9
20260906102003 49 29 1.0 3.0 0.00 0.01 0.01 68 1006.0
20260906101504 50 160 0.0 0.0 0.00 0.01 0.01 69 1006.0
20260906100504 50 159 0.0 2.0 0.00 0.01 0.01 71 1006.0
20260906095503 49 160 0.0 0.0 0.00 0.01 0.01 68 1006.0
20260906095004 49 160 0.0 5.0 0.00 0.01 0.01 68 1006.0
20260906094504 50 167 2.0 3.0 0.00 0.01 0.01 72 1005.9
20260906094004 50 187 1.0 3.0 0.00 0.01 0.01 67 1006.0
20260906093004 50 184 0.0 0.0 0.00 0.01 0.01 71 1005.9
20260906092504 49 184 0.0 0.0 0.00 0.01 0.01 71 1005.9
20260906091504 49 184 0.0 0.0 0.00 0.01 0.01 68 1005.9
20260906091004 49 184 0.0 0.0 0.00 0.01 0.01 69 1005.8
20260906090003 49 184 0.0 0.0 0.00 0.01 0.01 69 1005.6
20260906085504 49 184 0.0 3.0 0.00 0.01 0.01 70 1005.6
20260906085004 48 327 0.0 0.0 0.00 0.01 0.01 72 1005.5
20260906084503 47 324 0.0 0.0 0.00 0.01 0.01 72 1005.5
20260906084003 47 331 0.0 0.0 0.00 0.01 0.01 72 1005.6
20260906083505 47 331 0.0 0.0 0.00 0.01 0.01 71 1005.6
20260906083004 47 332 0.0 0.0 0.00 0.01 0.01 71 1005.5
20260906082504 46 334 0.0 0.0 0.00 0.01 0.01 71 1005.4
20260906082005 47 345 0.0 3.0 0.00 0.01 0.01 71 1005.4
20260906081504 47 67 0.0 0.0 0.00 0.01 0.01 74 1005.3
20260906081003 47 67 0.0 0.0 0.00 0.01 0.01 72 1005.3
20260906080504 46 67 0.0 0.0 0.00 0.01 0.01 77 1005.3
20260906080004 46 67 0.0 0.0 0.00 0.01 0.01 77 1005.4
20260906075503 46 67 0.0 0.0 0.00 0.01 0.01 77 1005.4
20260906075004 46 67 0.0 0.0 0.00 0.01 0.01 77 1005.2
20260906074504 45 67 0.0 0.0 0.00 0.01 0.01 76 1005.3
20260906074004 45 69 0.0 3.0 0.00 0.01 0.01 80 1005.3
20260906073504 45 69 0.0 0.0 0.00 0.01 0.01 80 1005.3
20260906073004 44 69 0.0 0.0 0.00 0.01 0.01 78 1005.3
20260906072504 44 69 0.0 0.0 0.00 0.01 0.01 79 1005.3
20260906072004 44 69 0.0 0.0 0.00 0.01 0.01 84 1005.3
20260906071504 44 69 0.0 0.0 0.00 0.01 0.01 84 1005.3
20260906071003 44 69 0.0 0.0 0.00 0.01 0.01 84 1005.2
20260906070004 43 69 0.0 0.0 0.00 0.01 0.01 84 1005.2
20260906065504 43 69 0.0 0.0 0.00 0.01 0.01 82 1005.2
20260906065004 43 69 0.0 0.0 0.00 0.01 0.01 85 1005.2
20260906064504 43 69 0.0 0.0 0.00 0.01 0.01 85 1005.2
20260906064004 43 69 0.0 0.0 0.00 0.01 0.01 85 1005.2
20260906063504 43 69 0.0 0.0 0.00 0.01 0.01 87 1005.2
20260906062504 43 69 0.0 0.0 0.00 0.01 0.01 86 1005.0
20260906062004 43 69 0.0 0.0 0.00 0.01 0.01 86 1005.0
20260906061504 43 69 0.0 0.0 0.00 0.01 0.01 88 1005.0
20260906061003 42 69 0.0 0.0 0.00 0.01 0.01 87 1004.9
20260906060504 42 69 0.0 0.0 0.00 0.01 0.01 87 1004.8
20260906060004 42 69 0.0 0.0 0.00 0.01 0.01 89 1004.7
20260906055506 42 69 0.0 0.0 0.00 0.01 0.01 89 1004.8
20260906055004 42 69 0.0 0.0 0.00 0.01 0.01 90 1004.8
20260906054503 41 69 0.0 0.0 0.00 0.01 0.01 90 1004.8
20260906054004 41 69 0.0 0.0 0.00 0.01 0.01 90 1004.7
20260906053504 41 69 0.0 0.0 0.00 0.01 0.01 88 1004.7
20260906052504 41 69 0.0 0.0 0.00 0.01 0.01 85 1004.5
20260906052004 41 69 0.0 0.0 0.00 0.01 0.01 85 1004.6
20260906051003 41 69 0.0 0.0 0.00 0.01 0.01 84 1004.4
20260906050504 40 69 0.0 0.0 0.00 0.01 0.01 84 1004.4
20260906050004 40 69 0.0 0.0 0.00 0.01 0.01 84 1004.2
20260906045504 40 69 0.0 0.0 0.00 0.01 0.01 85 1004.3
20260906045003 40 69 0.0 0.0 0.00 0.01 0.01 85 1004.2
20260906044504 40 69 0.0 0.0 0.00 0.01 0.01 85 1004.2
20260906044004 39 69 0.0 0.0 0.01 0.01 0.01 85 1004.0
20260906043504 39 69 0.0 0.0 0.01 0.01 0.01 85 1003.9
20260906042504 39 69 0.0 0.0 0.01 0.01 0.01 86 1003.9
20260906042004 38 69 0.0 0.0 0.01 0.01 0.01 86 1003.8
20260906041004 38 69 0.0 0.0 0.01 0.01 0.01 87 1003.7
20260906040504 38 69 0.0 0.0 0.01 0.01 0.01 87 1003.7
20260906035504 37 69 0.0 0.0 0.01 0.01 0.01 88 1003.5
20260906034504 37 69 0.0 0.0 0.01 0.01 0.01 89 1003.5
20260906034004 37 69 0.0 0.0 0.00 0.00 0.00 89 1003.4
20260906033503 36 69 0.0 0.0 0.00 0.00 0.00 89 1003.3
20260906033004 36 69 0.0 0.0 0.00 0.00 0.00 89 1003.3
20260906032503 36 69 0.0 0.0 0.00 0.00 0.00 90 1003.2
20260906032004 36 69 0.0 0.0 0.00 0.00 0.00 90 1003.2
20260906031503 36 69 0.0 0.0 0.00 0.00 0.00 90 1003.2
20260906031003 36 69 0.0 0.0 0.00 0.00 0.00 90 1003.2
20260906030504 36 69 0.0 0.0 0.00 0.00 0.00 90 1003.1
20260906025504 36 69 0.0 0.0 0.00 0.00 0.00 90 1003.0
20260906024503 37 69 0.0 0.0 0.00 0.00 0.00 90 1003.0
20260906023503 38 69 0.0 0.0 0.00 0.00 0.00 90 1002.9
20260906023004 38 69 0.0 0.0 0.00 0.00 0.00 90 1002.9
20260906022504 38 69 0.0 0.0 0.00 0.00 0.00 90 1002.8
20260906022004 38 69 0.0 0.0 0.00 0.00 0.00 90 1002.9
20260906021504 39 69 0.0 0.0 0.00 0.00 0.00 90 1002.9
20260906020504 39 69 0.0 0.0 0.00 0.00 0.00 90 1002.9
20260906020004 39 69 0.0 0.0 0.00 0.00 0.00 90 1002.5
20260906015504 40 69 0.0 0.0 0.00 0.00 0.00 90 1002.5
20260906015004 40 69 0.0 0.0 0.00 0.00 0.00 90 1002.4
20260906014504 40 69 0.0 0.0 0.00 0.00 0.00 90 1002.5
20260906014004 40 69 0.0 0.0 0.00 0.00 0.00 90 1002.5
20260906013504 40 69 0.0 0.0 0.00 0.00 0.00 90 1002.5
20260906013004 41 69 0.0 0.0 0.00 0.00 0.00 90 1002.4
20260906012004 41 69 0.0 0.0 0.00 0.00 0.00 90 1002.3
20260906011504 41 69 0.0 0.0 0.00 0.00 0.00 90 1002.3
20260906011004 41 69 0.0 0.0 0.00 0.00 0.00 90 1002.3
20260906010504 41 69 0.0 0.0 0.00 0.00 0.00 90 1002.3
20260906010004 41 69 0.0 0.0 0.00 0.00 0.00 90 1002.2
20260906005503 41 69 0.0 0.0 0.00 0.00 0.00 90 1002.2
20260906005004 41 69 0.0 0.0 0.00 0.00 0.00 90 1002.2
20260906004504 41 69 0.0 0.0 0.00 0.00 0.00 90 1002.1
20260906003504 41 69 0.0 0.0 0.00 0.00 0.00 90 1002.0
20260906003004 41 69 0.0 0.0 0.00 0.00 0.00 90 1002.0
20260906002503 41 69 0.0 0.0 0.00 0.00 0.00 90 1002.0
20260906001503 41 69 0.0 0.0 0.00 0.00 0.00 89 1001.9
20260906001003 41 69 0.0 0.0 0.00 0.00 0.00 89 1001.7
20260906000504 41 69 0.0 0.0 0.00 0.00 0.00 89 1001.6
20260906000003 42 69 0.0 0.0 0.00 0.00 0.00 89 1001.5
20260905235503 42 69 0.0 0.0 0.00 0.00 0.00 88 1001.5
20260905235004 42 69 0.0 0.0 0.00 0.00 0.00 88 1001.4
20260905234004 43 69 0.0 0.0 0.00 0.00 0.00 87 1001.3
20260905233504 43 69 0.0 0.0 0.00 0.00 0.00 86 1001.3
20260905233004 43 69 1.0 3.0 0.00 0.00 0.00 86 1001.2
20260905232505 43 69 0.0 0.0 0.00 0.00 0.00 86 1001.2
20260905232004 43 69 0.0 1.0 0.00 0.00 0.00 87 1001.1
20260905231004 44 76 0.0 0.0 0.00 0.00 0.00 89 1001.1
20260905230504 44 75 0.0 0.0 0.00 0.00 0.00 90 1001.1
20260905230004 44 75 0.0 3.0 0.00 0.00 0.00 90 1001.0
20260905225503 44 71 0.0 0.0 0.00 0.00 0.00 89 1000.9
20260905225003 44 76 0.0 0.0 0.00 0.00 0.00 87 1000.9
20260905224503 44 78 0.0 0.0 0.00 0.00 0.00 86 1000.8
20260905224004 44 96 0.0 0.0 0.00 0.00 0.00 85 1000.6
20260905223504 44 51 0.0 1.0 0.00 0.00 0.00 85 1000.5
20260905223003 44 49 0.0 0.0 0.00 0.00 0.00 85 1000.6
20260905222504 44 49 0.0 0.0 0.00 0.00 0.00 85 1000.5
20260905222004 44 49 0.0 0.0 0.00 0.00 0.00 85 1000.4
20260905221504 44 49 0.0 0.0 0.00 0.00 0.00 85 1000.4
20260905221004 44 49 0.0 0.0 0.00 0.00 0.00 85 1000.3
20260905220504 43 49 0.0 0.0 0.00 0.00 0.00 85 1000.3
20260905220003 44 49 0.0 0.0 0.00 0.00 0.00 85 1000.3
20260905215504 43 49 0.0 0.0 0.00 0.00 0.00 85 1000.3
20260905215004 43 49 0.0 0.0 0.00 0.00 0.00 85 1000.1
20260905214504 43 49 0.0 0.0 0.00 0.00 0.00 85 1000.0
20260905214004 43 49 0.0 0.0 0.00 0.00 0.00 85 1000.0
20260905213504 43 49 0.0 0.0 0.00 0.00 0.00 85 1000.0
20260905213004 43 49 0.0 0.0 0.00 0.00 0.00 85 1000.0
20260905212003 43 49 0.0 0.0 0.00 0.00 0.00 85 999.8
20260905211503 43 49 0.0 0.0 0.00 0.00 0.00 85 999.7
20260905211004 43 49 0.0 0.0 0.00 0.00 0.00 85 999.8
20260905210504 43 49 0.0 0.0 0.00 0.00 0.00 85 999.6
20260905210003 43 49 0.0 0.0 0.00 0.00 0.00 85 999.6
20260905205503 42 49 0.0 0.0 0.00 0.00 0.00 86 999.5
20260905205004 42 49 0.0 0.0 0.00 0.00 0.00 85 999.6
20260905203004 41 49 0.0 0.0 0.00 0.00 0.00 87 999.4
20260905202504 41 49 0.0 0.0 0.00 0.00 0.00 88 999.2
20260905202004 41 49 0.0 0.0 0.00 0.00 0.00 88 999.2
20260905201504 41 49 0.0 0.0 0.00 0.00 0.00 88 999.1
20260905201004 41 49 0.0 0.0 0.00 0.00 0.00 88 999.0
20260905200504 41 49 0.0 0.0 0.00 0.00 0.00 89 999.0
20260905200004 40 49 0.0 0.0 0.00 0.00 0.00 89 998.9
20260905195504 40 49 0.0 0.0 0.00 0.00 0.00 89 998.9
20260905195004 40 49 0.0 0.0 0.00 0.00 0.00 89 998.9
20260905194504 40 49 0.0 0.0 0.00 0.00 0.00 90 998.8
20260905193004 41 49 0.0 0.0 0.00 0.00 0.00 90 998.7
20260905192504 41 49 0.0 0.0 0.00 0.00 0.00 90 998.6
20260905192004 41 49 0.0 0.0 0.00 0.00 0.00 90 998.6
20260905191504 41 49 0.0 0.0 0.00 0.00 0.00 89 998.5
20260905191004 41 49 0.0 0.0 0.00 0.00 0.00 90 998.4
20260905190504 42 49 0.0 0.0 0.00 0.00 0.00 89 998.4
20260905190004 42 49 0.0 0.0 0.00 0.00 0.00 89 998.3
20260905185503 42 49 0.0 0.0 0.00 0.00 0.00 89 998.3
20260905185004 43 49 0.0 0.0 0.00 0.00 0.00 89 998.2
20260905184504 43 49 0.0 0.0 0.00 0.00 0.00 88 998.1
20260905184004 44 49 0.0 0.0 0.00 0.00 0.00 88 998.2
20260905183003 45 49 0.0 0.0 0.00 0.00 0.00 91 998.1
20260905182503 45 49 0.0 0.0 0.00 0.00 0.00 87 998.0
20260905182004 46 49 0.0 0.0 0.00 0.00 0.00 87 997.9
20260905181504 46 49 0.0 0.0 0.00 0.00 0.00 87 997.8
20260905181003 47 49 0.0 0.0 0.00 0.00 0.00 86 997.8
20260905180504 47 49 0.0 0.0 0.00 0.00 0.00 86 997.7
20260905180003 48 49 0.0 0.0 0.00 0.00 0.00 85 997.8
20260905175004 49 49 0.0 0.0 0.00 0.00 0.00 84 997.6
20260905173504 51 49 0.0 0.0 0.00 0.00 0.00 83 997.4
20260905173004 51 49 0.0 0.0 0.00 0.00 0.00 81 997.4
20260905172504 51 49 0.0 0.0 0.00 0.00 0.00 80 997.4